[[{"header":{"parameterUnit":"m.s-1","parameterCategory":1,"la1":30.2991,"la2":30.254,"lo1":-89.0895,"lo2":-89.0444,"dy":0.0017,"dx":0.0017,"nx":28,"ny":28,"refTime":"2024-05-10T03:00:00:Z","depth":0,"parameterNumber":2,"parameterNumberName":"U-component_of_WINDS"},"data":[0,0,0,0,0,0,0,0,0,0,0,0,0,0,0,0,0,0,0,0,0,0,0,0,0,0,0,0,0,0,0,0,0,0,0,0,0,0,0,0,0,0,0,0,0,0,0,0,0,0,0,0,0,0,0,0,0,0,-1.4988,-1.4987,0,-1.4913,-1.4912,-1.4911,-1.4824,-1.4822,-1.4821,-1.482,-1.4744,-1.4743,-1.4742,0,0,0,0,0,0,0,0,0,0,0,0,0,-1.5055,-1.5054,-1.4988,-1.4987,-1.4986,-1.4913,-1.4912,-1.4911,-1.4824,-1.4822,-1.482,-1.4819,-1.4744,-1.4743,-1.4742,0,0,0,0,0,0,0,0,0,0,0,0,0,-1.5008,-1.5054,-1.4988,-1.4933,-1.4928,-1.4914,-1.4912,-1.4911,-1.4824,-1.4822,-1.482,-1.4818,-1.4744,-1.4743,-1.4742,-1.4776,0,0,-1.4739,-1.4738,0,0,0,0,0,0,0,0,-1.5011,-1.5005,-1.4942,-1.4937,-1.4931,-1.4876,-1.4908,-1.4866,-1.4825,-1.4864,-1.482,-1.4817,-1.4789,-1.4784,-1.4775,-1.4772,-1.4769,-1.4739,-1.4738,-1.4737,-1.4737,0,0,0,0,0,0,0,-1.5014,-1.5008,-1.4958,-1.4942,-1.4935,-1.4913,-1.4904,-1.49,-1.4839,-1.486,-1.4853,-1.4846,-1.4786,-1.4776,-1.4772,-1.4768,-1.4739,-1.4738,-1.4737,-1.4737,-1.479,-1.4792,0,0,0,0,0,0,-1.5025,-1.5011,-1.4961,-1.4956,-1.4967,-1.4913,-1.4903,-1.4895,-1.4838,-1.4828,-1.4848,-1.4842,-1.4779,-1.4774,-1.477,-1.4806,-1.4737,-1.4736,-1.4736,-1.4788,-1.479,-1.4792,0,0,0,0,0,0,-1.5027,-1.5022,-1.4964,-1.4982,-1.4973,-1.4914,-1.4906,-1.4895,-1.4885,-1.4829,-1.4818,-1.4849,-1.4777,-1.4771,-1.4775,-1.4802,-1.4736,-1.4735,-1.4785,-1.4788,-1.4791,-1.4878,0,0,0,0,0,0,-1.5029,-1.5023,-1.5035,-1.4983,-1.4972,-1.497,-1.4908,-1.4895,-1.4883,-1.4875,-1.4827,-1.4818,-1.4775,-1.4777,-1.4774,-1.4799,-1.4734,-1.4782,-1.4786,-1.479,-1.4873,-1.4884,-1.4893,0,0,0,0,0,-1.5032,-1.5062,-1.5036,-1.503,-1.4986,-1.4972,-1.4966,-1.4917,-1.4886,-1.4898,-1.4862,-1.4819,-1.4799,-1.4778,-1.4774,-1.4799,-1.478,-1.4785,-1.479,-1.4868,-1.4882,-1.4893,0,0,0,0,0,0,-1.5119,-1.5054,-1.5024,-1.5038,-1.5011,-1.4957,-1.497,-1.4933,-1.4914,-1.4907,-1.4847,-1.4837,-1.4848,-1.4823,-1.4801,-1.4829,-1.4784,-1.4788,-1.4845,-1.4857,-1.4867,-1.4873,-1.4733,0,0,0,0,0,-1.5139,-1.5133,-1.5077,-1.5095,-1.5083,-1.503,-1.5021,-1.4986,-1.4955,-1.4944,-1.4908,-1.488,-1.4868,-1.4861,-1.4846,-1.4868,-1.4857,-1.4884,-1.4894,-1.4903,-1.4907,-1.4918,-1.493,-1.4808,-1.4808,-1.4808,0,0,-1.5182,-1.5146,-1.5146,-1.5112,-1.5086,-1.5082,-1.502,-1.5018,-1.5014,-1.4943,-1.4945,-1.4918,-1.4883,-1.4897,-1.4901,-1.4877,-1.4939,-1.4909,-1.4916,-1.4916,-1.4924,-1.4936,-1.4946,-1.4811,-1.481,-1.481,0,0,-1.5258,-1.523,-1.5242,-1.5218,-1.5181,-1.5145,-1.5148,-1.51,-1.5079,-1.508,-1.5027,-1.5021,-1.5001,-1.4979,-1.4965,-1.5033,-1.4993,-1.503,-1.5085,-1.5096,-1.5106,-1.5114,-1.5139,-1.5149,-1.5034,-1.5034,-1.5035,0,-1.5316,-1.5307,-1.5253,-1.5254,-1.5241,-1.5176,-1.5189,-1.5168,-1.5128,-1.5121,-1.5094,-1.5068,-1.504,-1.5048,-1.5065,-1.5055,-1.5057,-1.5035,-1.5109,-1.5116,-1.5123,-1.5147,-1.5156,-1.5039,-1.5039,-1.5038,-1.5038,0,-1.538,-1.5375,-1.5389,-1.5353,-1.5341,-1.5348,-1.5295,-1.529,-1.5256,-1.5223,-1.5225,-1.5189,-1.5166,-1.5165,-1.5131,-1.5169,-1.5155,-1.512,-1.5073,-1.5141,-1.5162,-1.517,-1.5046,-1.5044,-1.5043,-1.5042,0,0,-1.5509,-1.5443,-1.5449,-1.5432,-1.5386,-1.5381,-1.5385,-1.5363,-1.536,-1.5335,-1.5338,-1.5322,-1.5289,-1.5273,-1.5236,-1.5246,-1.5304,-1.5209,-1.5207,-1.5229,-1.5344,-1.5372,-1.5384,-1.5277,-1.5279,-1.528,-1.5348,0,-1.5577,-1.5581,-1.5533,-1.5549,-1.5544,-1.5483,-1.5486,-1.5459,-1.5429,-1.542,-1.5386,-1.5377,-1.5333,-1.5324,-1.5331,-1.5296,-1.5326,-1.529,-1.528,-1.528,-1.5292,-1.5394,-1.5424,-1.549,-1.5355,-1.5357,-1.5358,0,-1.5658,-1.5637,-1.5654,-1.5608,-1.5604,-1.5608,-1.5584,-1.5577,-1.5545,-1.5522,-1.5505,-1.5463,-1.5464,-1.542,-1.5421,-1.5398,-1.5391,-1.5373,-1.5374,-1.5372,-1.5324,-1.5396,-1.5509,-1.552,-1.537,-1.5369,-1.5368,0,-1.5751,-1.5728,-1.5734,-1.5722,-1.5668,-1.5673,-1.5651,-1.5617,-1.5607,-1.5586,-1.5579,-1.5559,-1.5549,-1.5534,-1.5488,-1.546,-1.5496,-1.5447,-1.5478,-1.5479,-1.5489,-1.5489,-1.5604,-1.5483,-1.5483,-1.5482,-1.5482,0,-1.5833,-1.5846,-1.5776,-1.5781,-1.5793,-1.5738,-1.5752,-1.5724,-1.5694,-1.5693,-1.5638,-1.5638,-1.5576,-1.5569,-1.5533,-1.5541,-1.5536,-1.5518,-1.5509,-1.5524,-1.5527,-1.5519,-1.5514,-1.5485,-1.5484,-1.5484,-1.5484,0,-1.594,-1.5894,-1.5898,-1.5847,-1.5834,-1.5846,-1.5803,-1.5805,-1.5771,-1.577,-1.5766,-1.5714,-1.5703,-1.5655,-1.5632,-1.5608,-1.5629,-1.5609,-1.564,-1.5634,-1.5667,-1.5666,-1.5782,-1.5795,-1.5666,-1.5667,-1.5668,0,-1.5996,-1.6005,-1.5955,-1.595,-1.593,-1.5923,-1.5912,-1.5858,-1.585,-1.5815,-1.5822,-1.5806,-1.5791,-1.5777,-1.5737,-1.572,-1.57,-1.5742,-1.5697,-1.5712,-1.5702,-1.5703,-1.5704,-1.5752,-1.5754,-1.5755,-1.5756,0,-1.6101,-1.6078,-1.6065,-1.6044,-1.6034,-1.6015,-1.5993,-1.5992,-1.5932,-1.5925,-1.5913,-1.5902,-1.5879,-1.5865,-1.5841,-1.5819,-1.5778,-1.5771,-1.5777,-1.5793,-1.5811,-1.5803,-1.5667,-1.5768,-1.5767,-1.5766,-1.5766,-1.5765,-1.6185,-1.619,-1.6156,-1.6144,-1.6121,-1.6102,-1.6102,-1.6069,-1.6058,-1.6035,-1.6004,-1.5996,-1.5965,-1.5929,-1.591,-1.5903,-1.588,-1.5889,-1.5892,-1.5895,-1.5904,-1.5811,-1.5899,-1.5898,-1.5898,-1.5898,-1.5897,0,-1.6288,-1.6263,-1.6252,-1.6223,-1.6214,-1.6176,-1.615,-1.6145,-1.6139,-1.6112,-1.6099,-1.6086,-1.6072,-1.6031,-1.6013,-1.6016,-1.5998,-1.6014,-1.6014,-1.6009,-1.5924,-1.5921,-1.6029,-1.6029,-1.6029,-1.6029,-1.6029,-1.6029,-1.634,-1.6347,-1.632,-1.6316,-1.629,-1.6283,-1.6271,-1.6254,-1.6233,-1.6221,-1.6209,-1.6182,-1.615,-1.613,-1.6116,-1.6104,-1.6101,-1.6124,-1.6106,-1.6028,-1.6015,-1.6003,-1.6,-1.6123,-1.6123,-1.6192,-1.6192,-1.6193]},{"header":{"parameterUnit":"m.s-1","parameterCategory":1,"la1":30.2991,"la2":30.254,"lo1":-89.0895,"lo2":-89.0444,"dy":0.0017,"dx":0.0017,"nx":28,"ny":28,"refTime":"2024-05-10T03:00:00:Z","depth":0,"parameterNumber":3,"parameterNumberName":"V-component_of_WINDS"},"data":[0,0,0,0,0,0,0,0,0,0,0,0,0,0,0,0,0,0,0,0,0,0,0,0,0,0,0,0,0,0,0,0,0,0,0,0,0,0,0,0,0,0,0,0,0,0,0,0,0,0,0,0,0,0,0,0,0,0,0.0817,0.0816,0,0.0802,0.0802,0.0801,0.0799,0.0799,0.0799,0.08,0.0783,0.0783,0.0782,0,0,0,0,0,0,0,0,0,0,0,0,0,0.0842,0.0841,0.0817,0.0816,0.0816,0.0802,0.0802,0.0801,0.0799,0.0799,0.08,0.08,0.0784,0.0783,0.0782,0,0,0,0,0,0,0,0,0,0,0,0,0,0.0829,0.0841,0.0817,0.0813,0.0813,0.0802,0.0802,0.0801,0.0799,0.0799,0.08,0.08,0.0784,0.0783,0.0782,0.0773,0,0,0.078,0.0779,0,0,0,0,0,0,0,0,0.083,0.0828,0.0814,0.0814,0.0813,0.0803,0.0804,0.0792,0.0799,0.0804,0.08,0.08,0.0789,0.0788,0.0785,0.0772,0.0771,0.0779,0.0779,0.0779,0.0778,0,0,0,0,0,0,0,0.0831,0.0829,0.0811,0.0814,0.0813,0.0812,0.0811,0.0802,0.0796,0.0804,0.0804,0.0802,0.0789,0.0786,0.0785,0.0771,0.0779,0.0779,0.0778,0.0778,0.0749,0.0749,0,0,0,0,0,0,0.0832,0.083,0.0811,0.081,0.0822,0.0812,0.081,0.0806,0.0796,0.0795,0.0802,0.0802,0.0787,0.0786,0.0784,0.0772,0.0779,0.0778,0.0777,0.0749,0.0749,0.0749,0,0,0,0,0,0,0.0833,0.0831,0.0812,0.082,0.0817,0.0811,0.0806,0.0805,0.0802,0.0795,0.0793,0.08,0.0787,0.0785,0.0775,0.0771,0.0777,0.0777,0.0749,0.0749,0.0749,0.0748,0,0,0,0,0,0,0.0834,0.0831,0.0828,0.082,0.0817,0.0804,0.0806,0.0805,0.0801,0.0801,0.0792,0.0791,0.0787,0.0777,0.0775,0.077,0.0776,0.075,0.0749,0.0749,0.0748,0.0747,0.0747,0,0,0,0,0,0.0835,0.0828,0.0828,0.0825,0.0813,0.0804,0.0802,0.0798,0.08,0.0797,0.0792,0.0791,0.0772,0.0776,0.0773,0.0769,0.075,0.0749,0.0749,0.0748,0.0748,0.0747,0,0,0,0,0,0,0.0836,0.0827,0.0826,0.0817,0.0811,0.0803,0.0799,0.0798,0.0791,0.0791,0.0787,0.0785,0.0775,0.0771,0.0775,0.0759,0.0761,0.076,0.0762,0.0761,0.076,0.0761,0.0775,0,0,0,0,0,0.0835,0.0828,0.0821,0.0814,0.0811,0.0805,0.0801,0.0799,0.0792,0.079,0.0784,0.0778,0.077,0.0765,0.0758,0.0748,0.0745,0.0743,0.0742,0.0742,0.0741,0.0734,0.0733,0.0747,0.0747,0.0747,0,0,0.0833,0.0827,0.0824,0.0814,0.0809,0.0802,0.0803,0.0796,0.079,0.0789,0.0779,0.0775,0.0767,0.0757,0.0752,0.0753,0.0736,0.0741,0.0741,0.074,0.0733,0.0732,0.0731,0.0746,0.0746,0.0746,0,0,0.0826,0.0821,0.0814,0.0809,0.0802,0.0798,0.0796,0.0789,0.0786,0.0776,0.0774,0.0768,0.0755,0.0749,0.0745,0.0735,0.0734,0.0733,0.0729,0.0722,0.0721,0.072,0.0716,0.0715,0.0732,0.0732,0.0732,0,0.0824,0.0814,0.0811,0.0803,0.0799,0.0797,0.0789,0.0784,0.0775,0.0771,0.0773,0.0757,0.0751,0.0739,0.0737,0.0733,0.0731,0.0733,0.0722,0.0721,0.072,0.0716,0.0714,0.0732,0.0732,0.0732,0.0732,0,0.0812,0.0805,0.08,0.0791,0.0786,0.0778,0.0773,0.0768,0.0767,0.0763,0.0752,0.0746,0.0737,0.0734,0.0732,0.0721,0.0722,0.0723,0.0725,0.0718,0.0714,0.0713,0.0732,0.0732,0.0732,0.0732,0,0,0.0805,0.0794,0.0792,0.0788,0.0779,0.0773,0.0765,0.0757,0.0752,0.0746,0.0739,0.0728,0.0728,0.0723,0.072,0.0715,0.0706,0.0716,0.0716,0.0714,0.0693,0.0692,0.069,0.0706,0.0705,0.0705,0.0693,0,0.0797,0.0783,0.0779,0.0767,0.076,0.0758,0.0751,0.0745,0.0741,0.0734,0.0729,0.0721,0.0723,0.0719,0.0714,0.0709,0.0702,0.0709,0.0698,0.0698,0.0699,0.0688,0.0688,0.0677,0.0692,0.0692,0.0692,0,0.0785,0.0778,0.0765,0.0757,0.0754,0.0747,0.0739,0.0732,0.0725,0.0722,0.0716,0.0714,0.0705,0.0708,0.0696,0.0701,0.0696,0.0692,0.0692,0.069,0.0694,0.0686,0.0674,0.0672,0.0689,0.0689,0.069,0,0.078,0.0768,0.0758,0.0754,0.0745,0.074,0.0736,0.0729,0.0723,0.0716,0.0712,0.0704,0.0699,0.0692,0.0687,0.069,0.0675,0.0678,0.0671,0.0671,0.0668,0.0668,0.0654,0.0666,0.0666,0.0666,0.0666,0,0.077,0.0762,0.0756,0.075,0.0741,0.0736,0.0727,0.0723,0.0716,0.0709,0.0707,0.07,0.0695,0.0687,0.0683,0.0672,0.067,0.0668,0.0666,0.0667,0.0668,0.0663,0.0664,0.0666,0.0666,0.0666,0.0666,0,0.0763,0.0759,0.0748,0.074,0.0737,0.0731,0.0723,0.0717,0.0713,0.0704,0.0701,0.0695,0.0685,0.068,0.0668,0.0666,0.0653,0.0653,0.0656,0.0655,0.0649,0.0649,0.0632,0.0629,0.0643,0.0643,0.0643,0,0.0757,0.0751,0.0742,0.0737,0.0732,0.0725,0.0719,0.0715,0.0709,0.07,0.0694,0.0685,0.0677,0.0662,0.0656,0.0647,0.0646,0.064,0.0644,0.0645,0.0644,0.0645,0.0643,0.0639,0.0639,0.0639,0.0639,0,0.0747,0.0744,0.0737,0.0728,0.0722,0.0715,0.0708,0.0704,0.0698,0.0692,0.0682,0.0676,0.0664,0.0654,0.0644,0.0639,0.0638,0.0638,0.0635,0.0636,0.0637,0.0635,0.0653,0.0638,0.0638,0.0638,0.0638,0.0638,0.0739,0.0733,0.0726,0.0717,0.0711,0.0705,0.0698,0.0693,0.0685,0.0675,0.0673,0.0662,0.0654,0.0641,0.0636,0.0627,0.0628,0.0625,0.0624,0.0623,0.0623,0.0639,0.0625,0.0625,0.0625,0.0625,0.0625,0,0.0728,0.0723,0.0715,0.0705,0.0698,0.0697,0.0689,0.0683,0.0674,0.0667,0.0659,0.0648,0.0638,0.0631,0.0621,0.0616,0.0615,0.0613,0.0613,0.0612,0.0623,0.0625,0.0614,0.0614,0.0614,0.0614,0.0614,0.0614,0.0721,0.0711,0.0707,0.0694,0.0688,0.0678,0.0674,0.0667,0.0661,0.0649,0.0641,0.0636,0.0629,0.0618,0.0609,0.0607,0.0603,0.0602,0.0599,0.061,0.0611,0.0612,0.0614,0.0601,0.0601,0.0589,0.0589,0.0589]}]]